{"data":{"norad_id":59431,"intl_designator":"2024-065L","name":"STARLINK-31613","alt_names":[],"object_type":"PAYLOAD","status":"ACTIVE","operator":null,"country":"US","launch_date":"2024-04-07","launch_site_code":"AFWTR","launch_vehicle":null,"mission":null,"orbit_class":"UNKNOWN","rcs_meters":null,"size_class":null,"mass_kg":null,"dimensions":null,"purposes":["comms"],"wikipedia_slug":null,"has_3d_model":false,"image_url":null,"decayed_at":null,"tle_current":{"epoch":"2026-09-21T21:01:48.152928Z","epoch_age_seconds":46719,"freshness":"FRESH","line1":"1 59431U 24065L   26264.87625177  .00000138  00000+0  15231-4 0  9999","line2":"2 59431  53.1614  87.0609 0001258  88.9070 271.2077 15.34388945139012","mean_motion":15.34388945,"eccentricity":0.0001258,"inclination_deg":53.1614,"raan_deg":87.0609,"arg_perigee_deg":88.907,"mean_anomaly_deg":271.2077,"bstar":1.5231e-5,"rev_number":13901,"period_min":93.848434237774,"perigee_km":461.87551635837,"apogee_km":463.59668002987,"semimajor_km":6840.8730981941,"source":"CELESTRAK","updated_at":"2026-09-22T09:00:48.940303Z"}}}